Metlakatla, AK

3:57 PM AKST on January 18, 2017 (GMT -0900)
Annette Island

Weather History for PANT - July, 2013

Change the Weather History Date:

Monday, July 29, 2013

  Actual Average Record
Temperature  
Mean Temperature 70 °F 60 °F  
Max Temperature 85 °F 66 °F 88 °F (2009)
Min Temperature 55 °F 54 °F 44 °F (1999)
Degree Days  
Heating Degree Days 0    
Month to date heating degree days 150 196  
Since 1 June heating degree days 370 494  
Since 1 July heating degree days 150 196  
Cooling Degree Days 5    
Month to date cooling degree days 12  
Year to date cooling degree days 18  
Since 1 June cooling degree days 18  
Growing Degree Days 20 (Base 50)    
Moisture  
Dew Point 57 °F    
Average Humidity 0    
Maximum Humidity 0    
Minimum Humidity 0    
Precipitation  
Precipitation 0.00 in 0.16 in 1.30 in (1984)
Month to date precipitation 3.60 4.33  
Year to date precipitation 46.89 47.63  
Snow  
Snow 0.00 in 0.00 in 0.00 in (2016)
Month to date snowfall 0.0  
Since 1 June snowfall 0.0 0.0  
Since 1 July snowfall 0.0  
Snow Depth 0.00 in    
Sea Level Pressure  
Sea Level Pressure 30.05 in    
Wind  
Wind Speed 3 mph (NW)    
Max Wind Speed 8 mph    
Max Gust Speed 10 mph    
Visibility 10 miles    
Events      
T = Trace of Precipitation, MM = Missing Value Source: NWS Daily Summary

Daily Weather History Graph

Daily Weather History Graph

Search for Another Location

Airport or City:

Trip Planner

Search our weather history database for the weather conditions in past years. The results will help you decide how hot, cold, wet, or windy it might be!

Date:

Astronomy

Jul. 29, 2013 Rise Set
Actual Time 4:50 AM AKDT 8:53 PM AKDT
Civil Twilight 4:03 AM AKDT 9:40 PM AKDT
Nautical Twilight 2:53 AM AKDT 10:49 PM AKDT
Astronomical Twilight 1:25 AM AKDT 12:20 AM AKDT
Moon 11:23 PM AKDT (7/29) 2:09 PM AKDT (7/29)
Length of Visible Light 17h 37m
Length of Day
16h 03m
Waning Gibbous, 49% of the Moon is Illuminated
Jul 29
Waning Gibbous
Aug 6
New
Aug 14
First Quarter
Aug 20
Full
Aug 28
Last Quarter

Hourly Weather History & Observations

Time (AKDT) Temp. Heat Index Dew Point Humidity Pressure Visibility Wind Dir Wind Speed Gust Speed Precip Events Conditions
12:53 AM 61.0 °F - 55.9 °F 83% 30.06 in 10.0 mi WNW 4.6 mph - N/A   Clear
1:53 AM 59.0 °F - 55.0 °F 87% 30.06 in 10.0 mi Calm Calm - N/A   Clear
2:53 AM 57.9 °F - 55.0 °F 90% 30.07 in 10.0 mi Calm Calm - N/A   Clear
3:53 AM 55.9 °F - 55.0 °F 97% 30.07 in 10.0 mi Calm Calm - N/A   Clear
4:53 AM 55.9 °F - 54.0 °F 93% 30.08 in 10.0 mi Calm Calm - N/A   Clear
5:53 AM 59.0 °F - 57.0 °F 93% 30.08 in 10.0 mi Calm Calm - N/A   Partly Cloudy
6:53 AM 63.0 °F - 57.9 °F 84% 30.08 in 10.0 mi Calm Calm - N/A   Scattered Clouds
7:53 AM 68.0 °F - 60.1 °F 76% 30.08 in 10.0 mi Calm Calm - N/A   Scattered Clouds
8:53 AM 70.0 °F - 57.0 °F 63% 30.08 in 10.0 mi Calm Calm - N/A   Scattered Clouds
9:53 AM 73.9 °F - 59.0 °F 59% 30.08 in 10.0 mi Calm Calm - N/A   Scattered Clouds
10:53 AM 77.0 °F - 60.1 °F 56% 30.07 in 10.0 mi Variable 3.5 mph - N/A   Scattered Clouds
11:53 AM 75.0 °F - 57.9 °F 55% 30.07 in 10.0 mi Calm Calm - N/A   Scattered Clouds
12:53 PM 81.0 °F 81.3 °F 59.0 °F 47% 30.06 in 10.0 mi WNW 6.9 mph - N/A   Scattered Clouds
1:53 PM 82.9 °F 82.8 °F 59.0 °F 44% 30.06 in 10.0 mi Variable 3.5 mph - N/A   Scattered Clouds
2:53 PM 84.0 °F 83.0 °F 55.9 °F 38% 30.05 in 10.0 mi WNW 5.8 mph - N/A   Scattered Clouds
3:53 PM 84.0 °F 83.3 °F 57.0 °F 40% 30.04 in 10.0 mi WNW 5.8 mph - N/A   Scattered Clouds
4:53 PM 82.0 °F 81.4 °F 55.0 °F 39% 30.02 in 10.0 mi NW 6.9 mph - N/A   Scattered Clouds
5:53 PM 80.1 °F 80.4 °F 57.0 °F 45% 30.01 in 10.0 mi WNW 4.6 mph - N/A   Clear
6:53 PM 75.0 °F - 57.0 °F 53% 30.01 in 10.0 mi NW 6.9 mph - N/A   Clear
7:53 PM 72.0 °F - 57.0 °F 59% 30.02 in 10.0 mi Calm Calm - N/A   Clear
8:53 PM 69.1 °F - 57.9 °F 68% 30.03 in 10.0 mi NW 6.9 mph - N/A   Clear
9:53 PM 69.1 °F - 57.0 °F 65% 30.03 in 10.0 mi NW 5.8 mph - N/A   Clear
10:53 PM 68.0 °F - 57.0 °F 68% 30.03 in 10.0 mi NNW 6.9 mph - N/A   Clear
11:53 PM 64.0 °F - 57.9 °F 80% 30.04 in 10.0 mi NNW 5.8 mph - N/A   Clear